Date String (YYYY-MM-DD hh:mm:ss) UTC,Instrument flags,Ambient pressure (hPa),Sample flow (lpm),Bypass flow (lpm),Sample temperature (°C),Ambient temperature (°C),ASC tube jacket temperature (°C),LED temperature (°C),Box temperature (°C),Sample RH (%),Span deviation,Mass concentration (μg/m³),Mass concentration (μg/m³),Mass concentration (μg/m³)
DateTimeUTC,F1_M11,P_M11,Q1_M11,Q2_M11,T1_M11,T2_M11,T3_M11,T4_M11,T5_M11,U1_M11,ZSPAN_M11,X2_M11,X0_M11,X1_M11
2021-09-18 20:00:00,,0827.7,5.00,0.00,29.4,27.2,00.0,38.3,30.9,15.6,0001.0,0008.19,0021.80,0006.55
2021-09-18 20:01:00,,0827.7,5.01,0.00,29.2,25.7,00.0,38.3,30.5,15.7,0000.9,0008.17,0022.39,0006.56
2021-09-18 20:02:00,,0827.7,4.99,0.00,29.1,25.8,00.0,38.3,30.5,15.9,0000.9,0008.18,0022.34,0006.56
2021-09-18 20:03:00,,0827.7,5.02,0.00,29.1,26.3,00.0,38.2,30.6,16.1,0000.9,0008.24,0022.37,0006.57
2021-09-18 20:04:00,,0827.6,4.99,0.00,29.0,26.7,00.0,38.2,30.7,16.1,0000.7,0008.25,0023.21,0006.58
2021-09-18 20:05:00,,0827.6,5.01,0.00,29.1,27.2,00.0,38.2,30.8,15.8,0000.7,0008.32,0023.66,0006.61
2021-09-18 20:06:00,,0827.6,4.99,0.00,29.1,27.6,00.0,38.2,30.9,15.8,0000.6,0008.36,0026.71,0006.62
2021-09-18 20:07:00,,0827.6,5.01,0.00,29.2,27.9,00.0,38.2,31.1,15.9,0000.7,0008.42,0028.43,0006.62
2021-09-18 20:08:00,,0827.6,5.00,0.00,29.3,28.2,00.0,38.2,31.2,15.8,0000.6,0008.43,0027.26,0006.62
2021-09-18 20:09:00,,0827.5,5.00,0.00,29.3,28.1,00.0,38.2,31.1,15.7,0000.4,0008.44,0026.36,0006.63
2021-09-18 20:10:00,,0827.5,5.00,0.00,29.2,26.4,00.0,38.2,30.6,15.7,-000.2,0008.39,0026.61,0006.63
2021-09-18 20:11:00,,0827.5,5.00,0.00,29.1,25.7,00.0,38.2,30.4,15.9,-000.3,0008.40,0026.22,0006.64
2021-09-18 20:12:00,,0827.5,5.00,0.00,29.0,26.1,00.0,38.2,30.5,16.1,-000.7,0008.39,0026.10,0006.62
2021-09-18 20:13:00,,0827.5,5.00,0.00,29.0,26.5,00.0,38.1,30.6,15.9,-000.7,0008.35,0027.24,0006.61
2021-09-18 20:14:00,,0827.5,4.99,0.00,29.0,27.0,00.0,38.1,30.7,16.0,-000.6,0008.29,0027.95,0006.59
2021-09-18 20:15:00,,0827.5,5.01,0.00,29.0,27.4,00.0,38.1,30.8,16.1,-000.4,0008.22,0026.92,0006.58
2021-09-18 20:16:00,,0827.5,4.99,0.00,29.1,27.7,00.0,38.1,30.9,15.8,-000.2,0008.14,0026.89,0006.55
2021-09-18 20:17:00,,0827.5,5.01,0.00,29.2,28.0,00.0,38.1,31.0,15.5,-000.2,0008.11,0023.97,0006.53
2021-09-18 20:18:00,,0827.4,5.00,0.00,29.2,28.3,00.0,38.2,31.1,14.9,-000.3,0008.06,0023.76,0006.50
2021-09-18 20:19:00,,0827.4,4.99,0.00,29.3,28.3,00.0,38.2,31.1,14.7,0000.4,0007.98,0023.71,0006.46
2021-09-18 20:20:00,,0827.4,5.01,0.00,29.2,26.8,00.0,38.2,30.8,14.7,0000.3,0007.89,0023.23,0006.42
2021-09-18 20:21:00,,0827.4,5.00,0.00,29.1,25.7,00.0,38.2,30.5,14.8,0001.0,0007.89,0022.47,0006.39
2021-09-18 20:22:00,,0827.4,5.00,0.00,29.0,26.0,00.0,38.2,30.5,14.9,0000.9,0007.79,0023.30,0006.35
2021-09-18 20:23:00,,0827.4,5.00,0.00,29.0,26.5,00.0,38.1,30.6,14.9,0001.4,0007.75,0022.73,0006.34
2021-09-18 20:24:00,,0827.4,5.00,0.00,29.0,26.9,00.0,38.1,30.7,14.9,0001.5,0007.71,0021.42,0006.31
2021-09-18 20:25:00,,0827.3,4.99,0.00,29.0,27.3,00.0,38.1,30.8,14.7,0001.9,0007.73,0021.09,0006.29
2021-09-18 20:26:00,,0827.2,5.01,0.00,29.1,27.7,00.0,38.1,30.9,14.6,0002.6,0007.72,0021.18,0006.27
2021-09-18 20:27:00,,0827.3,5.01,0.00,29.1,28.0,00.0,38.1,31.0,14.4,0002.8,0007.68,0021.22,0006.23
2021-09-18 20:28:00,,0827.2,4.99,0.00,29.2,28.2,00.0,38.1,31.1,14.1,0002.4,0007.58,0021.08,0006.19
2021-09-18 20:29:00,,0827.3,5.01,0.00,29.3,28.4,00.0,38.1,31.2,13.9,0002.6,0007.49,0019.74,0006.16
2021-09-18 20:30:00,,0827.3,4.99,0.00,29.3,28.6,00.0,38.2,31.3,14.0,0002.5,0007.44,0019.31,0006.14
2021-09-18 20:31:00,,0827.2,5.00,0.00,29.4,28.7,00.0,38.2,31.4,13.9,0003.0,0007.43,0019.43,0006.12
2021-09-18 20:32:00,,0827.2,5.00,0.00,29.4,27.5,00.0,38.2,31.1,14.2,0002.7,0007.42,0019.92,0006.10
2021-09-18 20:33:00,,0827.1,5.01,0.00,29.2,26.0,00.0,38.2,30.6,14.4,0003.2,0007.44,0020.10,0006.09
2021-09-18 20:34:00,,0827.2,4.99,0.00,29.1,26.1,00.0,38.2,30.6,14.2,0003.0,0007.39,0020.53,0006.05
2021-09-18 20:35:00,,0827.1,5.00,0.00,29.1,26.5,00.0,38.2,30.7,14.0,0003.2,0007.37,0021.14,0006.01
2021-09-18 20:36:00,,0827.2,5.00,0.00,29.1,26.9,00.0,38.2,30.8,13.6,0003.0,0007.32,0020.51,0005.98
2021-09-18 20:37:00,,0827.2,4.98,0.00,29.1,27.4,00.0,38.2,30.9,13.4,0002.6,0007.31,0020.20,0005.94
2021-09-18 20:38:00,,0827.2,5.00,0.00,29.2,27.8,00.0,38.2,31.0,13.4,0002.5,0007.26,0019.38,0005.92
2021-09-18 20:39:00,,0827.1,5.00,0.00,29.3,28.1,00.0,38.2,31.2,14.0,0002.9,0007.25,0019.15,0005.92
2021-09-18 20:40:00,,0827.1,5.00,0.00,29.3,28.4,00.0,38.2,31.2,14.5,0002.2,0007.30,0018.66,0005.94
2021-09-18 20:41:00,,0827.1,5.00,0.00,29.4,28.6,00.0,38.3,31.3,14.9,0002.0,0007.41,0018.94,0005.96
2021-09-18 20:42:00,,0827.1,5.00,0.00,29.4,27.7,00.0,38.3,31.1,14.8,0002.4,0007.51,0019.77,0005.97
2021-09-18 20:43:00,,0827.0,5.01,0.00,29.3,26.1,00.0,38.3,30.7,14.4,0002.1,0007.51,0019.97,0005.98
2021-09-18 20:44:00,,0827.1,4.99,0.00,29.2,26.0,00.0,38.3,30.6,14.4,0002.1,0007.49,0018.76,0005.98
2021-09-18 20:45:00,,0826.9,5.00,0.00,29.1,26.5,00.0,38.2,30.7,14.4,0002.4,0007.57,0018.67,0006.00
2021-09-18 20:46:00,,0827.1,4.99,0.00,29.1,26.9,00.0,38.2,30.8,14.3,0001.9,0007.58,0018.51,0006.02
2021-09-18 20:47:00,,0826.9,5.01,0.00,29.1,27.3,00.0,38.2,30.9,14.2,0001.3,0007.57,0018.25,0006.03
2021-09-18 20:48:00,,0826.9,4.99,0.00,29.2,27.7,00.0,38.2,31.0,14.3,0001.2,0007.58,0017.93,0006.06
2021-09-18 20:49:00,,0826.9,5.00,0.00,29.3,28.0,00.0,38.2,31.2,14.2,0000.9,0007.65,0018.59,0006.09
2021-09-18 20:50:00,,0826.8,5.00,0.00,29.3,28.3,00.0,38.2,31.3,14.0,0000.5,0007.63,0019.15,0006.09
2021-09-18 20:51:00,,0826.9,5.01,0.00,29.4,28.3,00.0,38.3,31.3,13.6,0000.7,0007.58,0020.30,0006.08
2021-09-18 20:52:00,,0826.9,5.01,0.00,29.3,26.8,00.0,38.3,30.8,13.9,0001.0,0007.51,0020.34,0006.06
2021-09-18 20:53:00,,0826.9,4.99,0.00,29.2,25.9,00.0,38.2,30.5,14.3,0000.6,0007.43,0020.04,0006.06
2021-09-18 20:54:00,,0826.9,5.00,0.00,29.1,26.2,00.0,38.2,30.6,14.3,0001.0,0007.43,0019.82,0006.04
2021-09-18 20:55:00,,0826.8,5.00,0.00,29.1,26.6,00.0,38.2,30.7,14.3,0001.1,0007.41,0020.06,0006.03
2021-09-18 20:56:00,,0827.0,5.00,0.00,29.1,27.0,00.0,38.2,30.8,13.7,0000.9,0007.30,0019.08,0006.01
2021-09-18 20:57:00,,0827.0,5.00,0.00,29.1,27.4,00.0,38.2,30.9,13.6,0001.2,0007.24,0018.63,0005.99
2021-09-18 20:58:00,,0826.8,4.99,0.00,29.2,27.8,00.0,38.2,31.0,13.6,0001.7,0007.22,0018.79,0005.97
2021-09-18 20:59:00,,0826.7,5.00,0.00,29.3,28.1,00.0,38.2,31.2,13.1,0001.1,0007.18,0019.27,0005.94
